Flag for Lithuania Weather past 2 weeks in Vilnius, Lithuania

Now
55 °F

Sunny.


Feels Like: 52 °F
Forecast: 38 / 55 °F
Wind: 12 mph from North

Location: Vilnius Airport

Current Time: Sep 30, 2014 at 6:12:37 PM

Latest Report: Sep 30, 2014 at 5:50 PM


Visibility: 10 mi

Pressure: 30.21 "Hg

Humidity: 55%

Dew point: 39 °F

Location of VilniusLocation

Historic Weather in Vilnius — Graph

°F

Vilnius temperature yesterday

Maximum temperature yesterday: 63 °F (at 4:20 PM)
Minimum temperature yesterday: 52 °F (at 12:20 AM)
Average temperature yesterday: 56 °F

Past Weeks' High & Low Weather Summary

 TemperatureHumidityPressure
High68 °F (Sep 18, 3:20 PM)100% (Sep 15, 10:50 PM)30.39 "Hg (Sep 15, 10:50 PM)
Low32 °F (Sep 24, 6:20 AM)39% (Sep 30, 2:20 PM)29.50 "Hg (Sep 23, 4:50 AM)
Average52 °F79%30.04 "Hg
* Reported Sep 15 4:20 PM — Sep 30 4:50 PM, Vilnius, Weather by CustomWeather, © 2014

Note: Actual official high and low records may vary slightly from our data, if they occured in-between our weather recording intervals... More about our weather records

Advertising

Vilnius weather history for previous 24 hours

 ConditionsComfort  
Time TempWeatherWind HumidityBarometerVisibility
4:50 PM
Sep 30
57 °FSunny.8 mph55%30.18 "Hg10 mi
4:20 PM57 °FSunny.10 mph48%30.18 "Hg10 mi
3:50 PM57 °FSunny.10 mph48%30.18 "Hg10 mi
3:20 PM59 °FPartly sunny.12 mph48%30.18 "HgN/A
2:50 PM59 °FBroken clouds.10 mph45%30.18 "HgN/A
2:20 PM61 °FBroken clouds.9 mph39%30.18 "HgN/A
1:50 PM59 °FBroken clouds.7 mph48%30.18 "HgN/A
1:20 PM61 °FBroken clouds.8 mph48%30.18 "HgN/A
12:50 PM61 °FBroken clouds.9 mph52%30.18 "HgN/A
12:20 PM59 °FBroken clouds.7 mph55%30.18 "HgN/A
11:50 AM59 °FBroken clouds.7 mph59%30.18 "HgN/A
11:20 AM57 °FBroken clouds.5 mph72%30.15 "HgN/A
10:50 AM57 °FBroken clouds.3 mph77%30.15 "HgN/A
10:20 AM55 °FBroken clouds.6 mph82%30.15 "HgN/A
9:50 AM55 °FBroken clouds.3 mph82%30.15 "Hg4 mi
9:20 AM54 °FBroken clouds.3 mph94%30.15 "Hg4 mi
8:50 AM54 °FFog.5 mph94%30.15 "Hg2 mi
8:20 AM54 °FFog.5 mph94%30.15 "Hg2 mi
7:50 AM54 °FFog.3 mph94%30.12 "Hg2 mi
7:20 AM54 °FFog.5 mph94%30.12 "Hg2 mi
6:50 AM54 °FFog.3 mph94%30.12 "Hg1 mi
6:20 AM54 °FFog.6 mph94%30.12 "Hg1 mi
5:50 AM54 °FFog.7 mph94%30.12 "Hg2 mi
5:20 AM54 °FFog.6 mph94%30.12 "Hg2 mi
4:50 AM54 °FFog.7 mph94%30.12 "Hg2 mi
4:20 AM54 °FFog.6 mph94%30.12 "Hg2 mi
3:50 AM54 °FFog.6 mph94%30.09 "Hg2 mi
3:20 AM54 °FFog.5 mph94%30.12 "Hg2 mi
2:50 AM54 °FFog.5 mph88%30.12 "Hg2 mi
2:20 AM54 °FPartly cloudy.6 mph94%30.12 "Hg4 mi
1:50 AM54 °FPartly cloudy.7 mph94%30.12 "Hg4 mi
1:20 AM54 °FPartly cloudy.7 mph94%30.12 "Hg4 mi
12:50 AM54 °FPartly cloudy.8 mph88%30.12 "Hg4 mi
12:20 AM54 °FPassing clouds.8 mph94%30.12 "Hg4 mi
11:50 PM
Sep 29
54 °FPassing clouds.6 mph94%30.12 "Hg4 mi
11:20 PM55 °FClear.8 mph88%30.12 "Hg4 mi
10:50 PM55 °FClear.9 mph88%30.12 "Hg4 mi
10:20 PM55 °FClear.9 mph88%30.12 "Hg4 mi
9:50 PM54 °FPartly cloudy.7 mph94%30.12 "Hg4 mi
9:20 PM55 °FPartly cloudy.7 mph88%30.12 "Hg5 mi
8:50 PM55 °FPartly cloudy.8 mph88%30.12 "Hg5 mi
8:20 PM57 °FPartly cloudy.7 mph82%30.12 "Hg5 mi
7:50 PM57 °FBroken clouds.7 mph82%30.12 "Hg5 mi
7:20 PM57 °FPartly sunny.7 mph82%30.12 "HgN/A
6:50 PM59 °FPartly sunny.7 mph77%30.12 "HgN/A
6:20 PM61 °FPartly sunny.8 mph72%30.12 "HgN/A
Weather by CustomWeather, © 2014

See weather overviewHow to use our weather pages